This is the latest recevied weather packets stored in our database for station/object IK2ILW-6. If no packets are shown the sender has not sent any weather packets the latest 10 day(s).
| Time | Temp. | Humidity | Pressure | Rain* | Wind** | Luminosity | Snow |
|---|---|---|---|---|---|---|---|
| 1777767385 | 6.11° C | 71% | 1023.1 hPa | 0 mm | - | 0 W/m² | - |
| 1777766793 | 6.11° C | 71% | 1023.2 hPa | 0 mm | - | 0 W/m² | - |
| 1777765584 | 6.67° C | 75% | 1023.5 hPa | 0 mm | - | 0 W/m² | - |
| 1777764993 | 6.67° C | 75% | 1023.6 hPa | 0 mm | - | 0 W/m² | - |
| 1777764402 | 6.67° C | 76% | 1023.7 hPa | 0 mm | - | 0 W/m² | - |
| 1777764085 | 6.67° C | 76% | 1023.8 hPa | 0 mm | - | 0 W/m² | - |
| 1777763488 | 6.67° C | 78% | 1023.9 hPa | 0 mm | - | 0 W/m² | - |
| 1777763197 | 6.67° C | 76% | 1023.9 hPa | 0 mm | - | 0 W/m² | - |
| 1777761698 | 6.67° C | 77% | 1023.9 hPa | 0 mm | - | 0 W/m² | - |
| 1777761088 | 6.67° C | 76% | 1024 hPa | 0 mm | - | 0 W/m² | - |
| 1777760792 | 6.67° C | 76% | 1024 hPa | 0 mm | - | 0 W/m² | - |
| 1777760186 | 6.11° C | 75% | 1024 hPa | 0 mm | - | 0 W/m² | - |
| 1777759890 | 6.67° C | 75% | 1024 hPa | 0 mm | - | 0 W/m² | - |
| 1777758984 | 6.67° C | 71% | 1024.1 hPa | 0 mm | - | 0 W/m² | - |
| 1777757801 | 7.22° C | 62% | 1024.1 hPa | 0 mm | - | 0 W/m² | - |
| 1777757485 | 7.22° C | 55% | 1024 hPa | 0 mm | - | 0 W/m² | - |
| 1777757190 | 7.22° C | 60% | 1024 hPa | 0 mm | - | 0 W/m² | - |
| 1777756899 | 7.22° C | 64% | 1024 hPa | 0 mm | - | 0 W/m² | - |
| 1777756288 | 7.22° C | 59% | 1024.1 hPa | 0 mm | - | 0 W/m² | - |
| 1777755396 | 6.67° C | 60% | 1024.3 hPa | 0 mm | - | 0 W/m² | - |
| 1777754202 | 7.78° C | 62% | 1024.4 hPa | 0 mm | - | 0 W/m² | - |
| 1777753893 | 7.78° C | 61% | 1024.4 hPa | 0 mm | - | 0 W/m² | - |
| 1777753596 | 7.78° C | 62% | 1024.4 hPa | 0 mm | - | 0 W/m² | - |
| 1777753300 | 7.78° C | 62% | 1024.3 hPa | 0 mm | - | 0 W/m² | - |
| 1777752689 | 7.78° C | 65% | 1024.4 hPa | 0 mm | - | 0 W/m² | - |
* Rain latest hour (hover to see other rain measurements)
** Current wind speed in m/s (hover to see current wind gust speed)